contact:dominique.lefevre@mio.osupytheas.fr, maurice.libes@osupytheas.fr, didier.mallarino@osupytheas.fr
Project:EMSO http://www.emso-fr.org/EMSO-France
Depth: 2436.0 m
Title:EMSO Ligure Ouest : Data MII capteur AQUADOPP
Date,Latitude,Longitude,X_East,Y_North,Z_Up,Amplitude_X,Amplitude_Y,Amplitude_Z,Batterie,SoundSpeed,Heading,Pitch,Roll,Pressure,TIS,Speed,Direction
, degrees North, degrees East, m.s-1, m.s-1,m.s-1, 1, 1, 1, Volt, m.s-1, degree, degree, degree, dbar, degree_C, m.s-1, degree
2020-08-21T00:04:03,42.805,6.029,0.046,-0.034,-0.003,106.0,108.0,102.0,13.4,1505.2,324.9,-0.7,1.8,2470.422,13.3,0.057,126.5
2020-08-21T00:07:03,42.805,6.029,0.053,-0.023,0.008,104.0,106.0,103.0,13.3,1505.3,326.7,-0.7,1.8,2470.465,13.31,0.057,113.5
2020-08-21T00:10:03,42.805,6.029,0.036,-0.004,-0.013,105.0,107.0,102.0,13.4,1505.3,327.0,-0.8,1.9,2470.38,13.32,0.036,96.3
2020-08-21T00:13:03,42.805,6.029,0.042,-0.006,-0.002,107.0,108.0,103.0,13.3,1505.3,326.5,-0.7,1.8,2470.45,13.32,0.042,98.1
2020-08-21T00:16:03,42.805,6.029,0.023,-0.01,0.002,104.0,107.0,102.0,13.3,1505.3,323.6,-0.7,1.8,2470.435,13.32,0.025,113.5
2020-08-21T00:19:03,42.805,6.029,0.04,-0.022,-0.004,105.0,107.0,101.0,13.4,1505.3,324.2,-0.7,1.8,2470.408,13.32,0.045,118.8
2020-08-21T00:22:03,42.805,6.029,0.019,-0.028,-0.009,104.0,106.0,101.0,13.3,1505.3,326.6,-0.7,1.8,2470.412,13.32,0.033,145.8
2020-08-21T00:25:03,42.805,6.029,0.028,-0.008,0.026,105.0,106.0,101.0,13.4,1505.3,323.0,-0.7,1.8,2470.436,13.32,0.029,105.9
2020-08-21T00:28:03,42.805,6.029,0.038,-0.007,0.013,105.0,105.0,103.0,13.4,1505.3,324.3,-0.7,1.9,2470.415,13.32,0.038,100.4
2020-08-21T00:31:03,42.805,6.029,0.04,-0.017,0.007,105.0,107.0,101.0,13.4,1505.3,326.7,-0.7,1.8,2470.456,13.32,0.043,113.0
2020-08-21T00:34:03,42.805,6.029,0.052,-0.024,-0.009,105.0,106.0,103.0,13.3,1505.3,324.6,-0.8,1.8,2470.332,13.32,0.057,114.8
2020-08-21T00:37:03,42.805,6.029,0.025,-0.015,-0.008,105.0,108.0,102.0,13.4,1505.3,324.7,-0.7,1.8,2470.408,13.32,0.029,121.0
2020-08-21T00:40:03,42.805,6.029,0.056,-0.028,0.01,106.0,106.0,102.0,13.4,1505.3,323.4,-0.7,1.8,2470.365,13.32,0.062,116.6
2020-08-21T00:43:03,42.805,6.029,0.025,-0.005,0.01,104.0,106.0,103.0,13.4,1505.3,326.1,-0.7,1.8,2470.397,13.32,0.025,101.3
2020-08-21T00:46:03,42.805,6.029,0.037,-0.019,0.001,105.0,107.0,101.0,13.3,1505.3,325.5,-0.7,1.8,2470.409,13.32,0.041,117.2
2020-08-21T00:49:03,42.805,6.029,0.042,-0.039,-0.02,105.0,106.0,102.0,13.3,1505.3,326.4,-0.7,1.8,2470.394,13.32,0.057,132.9
2020-08-21T00:52:03,42.805,6.029,0.014,-0.013,0.003,104.0,107.0,103.0,13.3,1505.3,324.5,-0.7,1.8,2470.398,13.32,0.019,132.9
2020-08-21T00:55:03,42.805,6.029,0.05,-0.011,0.035,105.0,106.0,103.0,13.3,1505.3,324.5,-0.7,1.9,2470.384,13.32,0.051,102.4
2020-08-21T00:58:03,42.805,6.029,0.037,-0.026,-0.028,104.0,106.0,102.0,13.3,1505.3,327.1,-0.7,1.8,2470.361,13.32,0.045,125.1
2020-08-21T01:04:03,42.805,6.029,0.037,-0.023,-0.009,107.0,108.0,104.0,13.4,1505.2,324.8,-0.7,1.8,2470.449,13.3,0.043,121.9
2020-08-21T01:07:03,42.805,6.029,0.061,-0.017,-0.023,105.0,106.0,102.0,13.4,1505.3,326.2,-0.7,1.8,2470.394,13.31,0.063,105.6
2020-08-21T01:10:03,42.805,6.029,0.032,0.0,-0.002,105.0,107.0,102.0,13.3,1505.3,324.0,-0.7,1.8,2470.387,13.31,0.032,90.0
2020-08-21T01:13:03,42.805,6.029,0.035,-0.023,0.028,106.0,106.0,101.0,13.3,1505.3,325.7,-0.7,1.8,2470.359,13.32,0.041,123.3
2020-08-21T01:16:03,42.805,6.029,0.022,-0.018,-0.045,104.0,107.0,102.0,13.4,1505.3,326.1,-0.7,1.8,2470.41,13.32,0.028,129.3
2020-08-21T01:19:03,42.805,6.029,0.037,-0.032,-0.022,104.0,107.0,103.0,13.3,1505.3,326.5,-0.7,1.8,2470.384,13.32,0.048,130.9
2020-08-21T01:22:03,42.805,6.029,0.048,-0.02,-0.014,105.0,106.0,101.0,13.3,1505.3,326.6,-0.7,1.8,2470.392,13.32,0.052,112.6
2020-08-21T01:25:03,42.805,6.029,0.056,-0.014,-0.017,106.0,107.0,101.0,13.4,1505.3,325.2,-0.7,1.8,2470.35,13.32,0.057,104.0
2020-08-21T01:28:03,42.805,6.029,0.043,-0.017,-0.014,106.0,106.0,102.0,13.4,1505.3,324.5,-0.7,1.8,2470.339,13.32,0.046,111.6
2020-08-21T01:31:03,42.805,6.029,0.059,-0.03,0.03,105.0,106.0,102.0,13.4,1505.3,325.6,-0.7,1.8,2470.378,13.32,0.066,116.9
2020-08-21T01:34:03,42.805,6.029,0.042,-0.031,0.011,106.0,105.0,102.0,13.4,1505.3,327.0,-0.7,1.8,2470.382,13.32,0.052,126.4
2020-08-21T01:37:03,42.805,6.029,0.043,-0.021,0.003,105.0,106.0,101.0,13.4,1505.3,326.9,-0.7,1.8,2470.333,13.32,0.047,116.0
2020-08-21T01:40:03,42.805,6.029,0.041,-0.001,0.019,105.0,106.0,102.0,13.3,1505.3,323.2,-0.7,1.8,2470.35,13.32,0.041,91.4
2020-08-21T01:43:03,42.805,6.029,0.045,-0.021,0.004,105.0,106.0,103.0,13.4,1505.3,323.5,-0.7,1.8,2470.389,13.32,0.049,115.0
2020-08-21T01:46:03,42.805,6.029,0.033,-0.02,-0.021,104.0,107.0,102.0,13.3,1505.3,327.9,-0.8,1.8,2470.336,13.32,0.038,121.2
2020-08-21T01:49:03,42.805,6.029,0.036,-0.017,0.006,105.0,106.0,102.0,13.4,1505.3,324.3,-0.7,1.9,2470.344,13.32,0.039,115.3
2020-08-21T01:52:03,42.805,6.029,0.048,0.0,-0.005,105.0,108.0,103.0,13.4,1505.3,322.8,-0.7,1.8,2470.3,13.32,0.048,90.0
2020-08-21T01:55:03,42.805,6.029,0.012,-0.023,0.001,104.0,107.0,101.0,13.4,1505.3,324.7,-0.7,1.8,2470.359,13.32,0.025,152.4
2020-08-21T01:58:03,42.805,6.029,0.039,-0.014,-0.01,105.0,106.0,102.0,13.3,1505.3,326.8,-0.7,1.8,2470.304,13.32,0.041,109.7
2020-08-21T02:04:03,42.805,6.029,0.058,-0.01,0.007,104.0,107.0,102.0,13.3,1505.2,324.3,-0.7,1.8,2470.36,13.3,0.058,99.8
2020-08-21T02:07:03,42.805,6.029,0.046,-0.019,-0.014,106.0,106.0,102.0,13.3,1505.3,327.5,-0.7,1.8,2470.368,13.31,0.049,112.4
2020-08-21T02:10:03,42.805,6.029,0.047,-0.022,-0.054,105.0,108.0,101.0,13.3,1505.3,325.9,-0.7,1.8,2470.345,13.31,0.051,115.1
2020-08-21T02:13:03,42.805,6.029,0.061,-0.028,-0.008,104.0,105.0,102.0,13.4,1505.3,328.4,-0.7,1.9,2470.313,13.32,0.067,114.7
2020-08-21T02:16:03,42.805,6.029,0.035,-0.009,0.003,103.0,107.0,102.0,13.4,1505.3,327.9,-0.7,1.8,2470.367,13.32,0.036,104.4
2020-08-21T02:19:03,42.805,6.029,0.039,-0.013,0.006,104.0,106.0,101.0,13.4,1505.3,325.1,-0.7,1.8,2470.275,13.32,0.041,108.4
2020-08-21T02:22:03,42.805,6.029,0.037,-0.019,-0.01,104.0,106.0,102.0,13.4,1505.3,326.7,-0.7,1.8,2470.335,13.32,0.041,117.2
2020-08-21T02:25:03,42.805,6.029,0.05,-0.019,0.019,104.0,107.0,101.0,13.3,1505.3,327.2,-0.7,1.8,2470.294,13.32,0.053,110.8
2020-08-21T02:28:03,42.805,6.029,0.056,-0.016,0.011,105.0,105.0,102.0,13.4,1505.3,325.3,-0.7,1.9,2470.321,13.32,0.058,105.9
2020-08-21T02:31:03,42.805,6.029,0.045,-0.009,-0.009,105.0,105.0,101.0,13.4,1505.3,324.6,-0.7,1.8,2470.306,13.32,0.045,101.3
2020-08-21T02:34:03,42.805,6.029,0.064,-0.032,-0.004,105.0,106.0,102.0,13.3,1505.3,324.0,-0.7,1.8,2470.317,13.32,0.071,116.6
2020-08-21T02:37:03,42.805,6.029,0.01,-0.005,-0.036,105.0,105.0,102.0,13.4,1505.3,324.7,-0.8,1.8,2470.321,13.32,0.011,116.6
2020-08-21T02:40:03,42.805,6.029,0.056,-0.031,-0.009,104.0,106.0,102.0,13.4,1505.3,325.7,-0.7,1.8,2470.303,13.32,0.064,119.0
2020-08-21T02:43:03,42.805,6.029,0.061,-0.013,0.009,106.0,106.0,102.0,13.4,1505.3,328.5,-0.7,1.8,2470.322,13.32,0.062,102.0
2020-08-21T02:46:03,42.805,6.029,0.028,-0.008,-0.001,106.0,106.0,101.0,13.4,1505.3,323.1,-0.7,1.8,2470.334,13.32,0.029,105.9
2020-08-21T02:49:03,42.805,6.029,0.071,-0.031,0.014,105.0,106.0,101.0,13.3,1505.3,323.5,-0.7,1.8,2470.329,13.32,0.077,113.6
2020-08-21T02:52:03,42.805,6.029,0.046,-0.014,0.0,105.0,106.0,101.0,13.3,1505.3,322.8,-0.7,1.8,2470.276,13.32,0.048,106.9
2020-08-21T02:55:03,42.805,6.029,0.05,0.0,0.007,106.0,107.0,102.0,13.4,1505.3,328.5,-0.7,1.8,2470.3,13.32,0.05,90.0
2020-08-21T02:58:03,42.805,6.029,0.051,0.004,-0.048,104.0,106.0,102.0,13.4,1505.3,324.7,-0.7,1.8,2470.311,13.32,0.051,85.5
2020-08-21T03:04:03,42.805,6.029,0.045,-0.02,-0.004,106.0,106.0,102.0,13.4,1505.2,324.9,-0.7,1.8,2470.321,13.3,0.049,114.0
2020-08-21T03:07:03,42.805,6.029,0.023,-0.013,-0.016,105.0,105.0,103.0,13.4,1505.3,328.1,-0.7,1.8,2470.319,13.31,0.026,119.5
2020-08-21T03:10:03,42.805,6.029,0.057,-0.032,-0.015,105.0,106.0,101.0,13.4,1505.3,326.3,-0.7,1.8,2470.304,13.31,0.065,119.3
2020-08-21T03:13:03,42.805,6.029,0.046,-0.024,0.014,106.0,107.0,101.0,13.4,1505.3,324.6,-0.7,1.8,2470.265,13.32,0.051,117.6
2020-08-21T03:16:03,42.805,6.029,0.063,-0.027,-0.03,105.0,107.0,103.0,13.4,1505.3,328.0,-0.7,1.8,2470.276,13.32,0.068,113.2
2020-08-21T03:19:03,42.805,6.029,0.048,-0.012,-0.017,105.0,106.0,101.0,13.3,1505.3,326.3,-0.7,1.9,2470.302,13.32,0.049,104.0
2020-08-21T03:22:03,42.805,6.029,0.06,-0.025,-0.027,104.0,106.0,102.0,13.4,1505.3,325.2,-0.7,1.9,2470.304,13.32,0.064,112.6
2020-08-21T03:25:03,42.805,6.029,0.069,-0.034,-0.004,105.0,105.0,102.0,13.3,1505.3,326.4,-0.7,1.8,2470.333,13.32,0.076,116.2
2020-08-21T03:28:03,42.805,6.029,0.04,-0.015,-0.02,104.0,107.0,101.0,13.3,1505.3,326.7,-0.7,1.9,2470.273,13.32,0.042,110.6
2020-08-21T03:31:03,42.805,6.029,0.03,-0.04,-0.006,104.0,105.0,103.0,13.4,1505.3,325.6,-0.7,1.8,2470.28,13.32,0.05,143.1
2020-08-21T03:34:03,42.805,6.029,0.05,-0.024,-0.031,104.0,105.0,102.0,13.3,1505.3,324.7,-0.7,1.8,2470.294,13.32,0.055,115.6
2020-08-21T03:37:03,42.805,6.029,0.061,-0.025,-0.008,103.0,107.0,103.0,13.4,1505.3,323.7,-0.7,1.8,2470.328,13.32,0.065,112.3
2020-08-21T03:40:03,42.805,6.029,0.032,-0.029,0.002,104.0,106.0,103.0,13.4,1505.3,326.2,-0.8,1.8,2470.287,13.32,0.043,132.2
2020-08-21T03:43:03,42.805,6.029,0.013,-0.015,-0.013,105.0,106.0,102.0,13.3,1505.3,324.6,-0.7,1.9,2470.319,13.32,0.019,139.1
2020-08-21T03:46:03,42.805,6.029,0.052,-0.024,-0.02,106.0,105.0,102.0,13.4,1505.3,325.9,-0.7,1.8,2470.29,13.32,0.057,114.8
2020-08-21T03:49:03,42.805,6.029,0.047,-0.017,0.006,104.0,106.0,102.0,13.4,1505.3,327.8,-0.7,1.8,2470.298,13.32,0.049,109.9
2020-08-21T03:52:03,42.805,6.029,0.054,-0.008,0.014,105.0,107.0,102.0,13.4,1505.3,324.0,-0.7,1.9,2470.261,13.32,0.054,98.4
2020-08-21T03:55:03,42.805,6.029,0.063,-0.027,-0.006,104.0,105.0,102.0,13.4,1505.3,323.6,-0.7,1.8,2470.268,13.32,0.068,113.2
2020-08-21T03:58:03,42.805,6.029,0.031,-0.018,0.045,105.0,107.0,102.0,13.4,1505.3,326.8,-0.7,1.8,2470.287,13.32,0.035,120.1
2020-08-21T04:04:03,42.805,6.029,0.066,-0.015,-0.006,104.0,105.0,102.0,13.3,1505.2,326.0,-0.7,1.8,2470.361,13.3,0.067,102.8
2020-08-21T04:07:03,42.805,6.029,0.047,-0.019,-0.027,104.0,106.0,102.0,13.3,1505.3,327.6,-0.7,1.8,2470.332,13.31,0.05,112.0
2020-08-21T04:10:03,42.805,6.029,0.059,-0.014,0.021,105.0,105.0,102.0,13.4,1505.3,326.8,-0.7,1.8,2470.336,13.31,0.06,103.3
2020-08-21T04:13:03,42.805,6.029,0.033,-0.006,0.015,104.0,107.0,101.0,13.4,1505.3,324.6,-0.7,1.8,2470.288,13.32,0.033,100.3
2020-08-21T04:16:03,42.805,6.029,0.024,-0.018,-0.032,104.0,106.0,102.0,13.4,1505.3,326.9,-0.7,1.8,2470.304,13.32,0.03,126.9
2020-08-21T04:19:03,42.805,6.029,0.041,-0.033,-0.024,105.0,106.0,101.0,13.4,1505.3,327.9,-0.7,1.8,2470.298,13.32,0.052,128.8
2020-08-21T04:22:03,42.805,6.029,0.033,-0.009,0.0,105.0,106.0,101.0,13.4,1505.3,324.7,-0.7,1.8,2470.314,13.32,0.034,105.3
2020-08-21T04:25:03,42.805,6.029,0.04,-0.029,-0.021,106.0,106.0,102.0,13.4,1505.3,324.7,-0.7,1.8,2470.321,13.32,0.049,125.9
2020-08-21T04:28:03,42.805,6.029,0.023,-0.022,0.008,106.0,104.0,102.0,13.3,1505.3,326.3,-0.7,1.9,2470.299,13.32,0.031,133.7
2020-08-21T04:31:03,42.805,6.029,0.048,-0.016,-0.006,105.0,106.0,103.0,13.4,1505.3,327.4,-0.8,1.8,2470.31,13.32,0.05,108.4
2020-08-21T04:34:03,42.805,6.029,0.039,-0.047,-0.028,106.0,106.0,102.0,13.3,1505.3,325.0,-0.7,1.9,2470.331,13.32,0.061,140.3
2020-08-21T04:37:03,42.805,6.029,0.024,-0.011,-0.018,105.0,106.0,102.0,13.4,1505.3,326.9,-0.7,1.9,2470.284,13.32,0.026,114.6
2020-08-21T04:40:03,42.805,6.029,0.036,-0.024,-0.017,105.0,107.0,103.0,13.4,1505.3,326.6,-0.7,1.8,2470.297,13.32,0.043,123.7
2020-08-21T04:43:03,42.805,6.029,0.063,-0.034,-0.001,105.0,106.0,102.0,13.4,1505.3,326.3,-0.7,1.8,2470.293,13.32,0.071,118.4
2020-08-21T04:46:03,42.805,6.029,0.047,-0.019,-0.007,105.0,107.0,102.0,13.4,1505.3,328.1,-0.7,1.8,2470.292,13.32,0.05,112.0
2020-08-21T04:49:03,42.805,6.029,0.023,-0.004,-0.015,105.0,107.0,102.0,13.3,1505.3,327.7,-0.7,1.8,2470.326,13.32,0.023,99.9
2020-08-21T04:52:03,42.805,6.029,0.017,-0.029,-0.039,106.0,107.0,103.0,13.4,1505.3,328.1,-0.7,1.8,2470.316,13.32,0.033,149.6
2020-08-21T04:55:03,42.805,6.029,0.034,-0.004,-0.01,106.0,108.0,103.0,13.4,1505.3,324.3,-0.7,1.8,2470.349,13.32,0.034,96.7
2020-08-21T04:58:03,42.805,6.029,0.056,-0.038,0.01,106.0,106.0,102.0,13.3,1505.3,326.5,-0.7,1.8,2470.299,13.32,0.067,124.2
2020-08-21T05:04:03,42.805,6.029,0.059,-0.023,0.033,104.0,106.0,102.0,13.4,1505.2,324.3,-0.7,1.8,2470.351,13.3,0.063,111.3
2020-08-21T05:07:03,42.805,6.029,0.03,-0.022,0.003,105.0,106.0,102.0,13.4,1505.3,323.4,-0.7,1.8,2470.348,13.31,0.037,126.3
2020-08-21T05:10:03,42.805,6.029,0.055,-0.022,-0.022,104.0,105.0,102.0,13.4,1505.3,323.0,-0.7,1.8,2470.347,13.31,0.059,111.8
2020-08-21T05:13:03,42.805,6.029,0.064,-0.021,0.013,105.0,107.0,102.0,13.3,1505.3,324.2,-0.7,1.8,2470.358,13.32,0.067,108.2
2020-08-21T05:16:03,42.805,6.029,0.042,-0.013,0.001,105.0,106.0,102.0,13.3,1505.3,324.3,-0.7,1.8,2470.367,13.32,0.043,107.2
2020-08-21T05:19:03,42.805,6.029,0.043,-0.019,0.022,106.0,105.0,103.0,13.4,1505.3,326.9,-0.7,1.9,2470.347,13.32,0.047,113.8
2020-08-21T05:22:03,42.805,6.029,0.036,-0.036,-0.036,105.0,107.0,101.0,13.4,1505.3,327.2,-0.7,1.8,2470.365,13.32,0.05,135.0
2020-08-21T05:25:03,42.805,6.029,0.066,-0.02,-0.003,104.0,106.0,102.0,13.4,1505.3,327.9,-0.7,1.8,2470.351,13.32,0.068,106.9
2020-08-21T05:28:03,42.805,6.029,0.065,-0.038,-0.015,105.0,106.0,102.0,13.4,1505.3,327.7,-0.7,1.8,2470.351,13.32,0.075,120.3
2020-08-21T05:31:03,42.805,6.029,0.033,-0.05,-0.035,105.0,106.0,102.0,13.4,1505.3,327.6,-0.7,1.8,2470.298,13.32,0.059,146.6
2020-08-21T05:34:03,42.805,6.029,0.056,-0.01,0.001,105.0,105.0,101.0,13.4,1505.3,324.7,-0.7,1.8,2470.365,13.32,0.056,100.1
2020-08-21T05:37:03,42.805,6.029,0.054,-0.032,-0.015,105.0,106.0,101.0,13.4,1505.3,326.8,-0.7,1.9,2470.368,13.32,0.062,120.7
2020-08-21T05:40:03,42.805,6.029,0.059,-0.023,-0.028,105.0,105.0,103.0,13.4,1505.3,324.1,-0.8,1.9,2470.348,13.32,0.063,111.3
2020-08-21T05:43:03,42.805,6.029,0.024,-0.026,-0.034,105.0,104.0,102.0,13.4,1505.3,327.1,-0.7,1.9,2470.333,13.32,0.035,137.3
2020-08-21T05:46:03,42.805,6.029,0.064,-0.026,-0.037,105.0,106.0,101.0,13.4,1505.3,324.7,-0.7,1.8,2470.338,13.32,0.069,112.1
2020-08-21T05:49:03,42.805,6.029,0.031,-0.023,0.022,107.0,105.0,101.0,13.3,1505.3,323.9,-0.7,1.8,2470.379,13.32,0.038,126.6
2020-08-21T05:52:03,42.805,6.029,0.028,-0.021,-0.009,105.0,105.0,102.0,13.4,1505.3,326.6,-0.7,1.8,2470.396,13.32,0.035,126.9
2020-08-21T05:55:03,42.805,6.029,0.046,-0.03,0.017,105.0,106.0,101.0,13.4,1505.3,327.7,-0.7,1.9,2470.369,13.32,0.054,123.1
2020-08-21T05:58:03,42.805,6.029,0.036,-0.022,-0.01,105.0,106.0,102.0,13.3,1505.3,326.8,-0.7,1.8,2470.39,13.32,0.042,121.4
2020-08-21T06:04:03,42.805,6.029,0.039,-0.023,-0.004,105.0,107.0,101.0,13.3,1505.2,327.8,-0.8,1.8,2470.463,13.3,0.045,120.5
2020-08-21T06:07:03,42.805,6.029,0.052,-0.039,-0.005,106.0,106.0,101.0,13.4,1505.3,327.1,-0.7,1.9,2470.383,13.31,0.064,126.9
2020-08-21T06:10:03,42.805,6.029,0.053,-0.028,-0.026,104.0,105.0,101.0,13.4,1505.3,328.4,-0.7,1.9,2470.428,13.31,0.059,117.9
2020-08-21T06:13:03,42.805,6.029,0.023,-0.025,-0.029,104.0,106.0,102.0,13.3,1505.3,326.7,-0.7,1.8,2470.42,13.32,0.033,137.4
2020-08-21T06:16:03,42.805,6.029,0.033,-0.029,0.013,104.0,106.0,102.0,13.4,1505.3,325.3,-0.7,1.8,2470.423,13.32,0.043,131.3
2020-08-21T06:19:03,42.805,6.029,0.051,-0.037,0.001,104.0,106.0,102.0,13.3,1505.3,326.0,-0.7,1.8,2470.424,13.32,0.063,126.0
2020-08-21T06:22:03,42.805,6.029,0.056,-0.024,-0.018,104.0,106.0,101.0,13.4,1505.3,327.9,-0.7,1.9,2470.416,13.32,0.06,113.2
2020-08-21T06:25:03,42.805,6.029,0.046,-0.024,0.0,105.0,106.0,102.0,13.4,1505.3,322.8,-0.7,1.8,2470.437,13.32,0.051,117.6
2020-08-21T06:28:03,42.805,6.029,0.028,-0.05,-0.035,105.0,105.0,102.0,13.4,1505.3,326.1,-0.7,1.8,2470.376,13.32,0.057,150.7
2020-08-21T06:31:03,42.805,6.029,0.034,-0.023,-0.032,106.0,105.0,101.0,13.3,1505.3,325.7,-0.7,1.8,2470.405,13.32,0.041,124.1
2020-08-21T06:34:03,42.805,6.029,0.021,-0.024,0.002,104.0,107.0,102.0,13.4,1505.3,328.4,-0.7,1.8,2470.443,13.32,0.031,138.8
2020-08-21T06:37:03,42.805,6.029,0.041,-0.023,-0.019,104.0,106.0,101.0,13.3,1505.3,324.6,-0.7,1.8,2470.443,13.32,0.047,119.3
2020-08-21T06:40:03,42.805,6.029,0.057,-0.022,0.01,104.0,106.0,101.0,13.4,1505.3,324.5,-0.7,1.8,2470.393,13.32,0.061,111.1
2020-08-21T06:43:03,42.805,6.029,0.031,-0.015,-0.005,105.0,106.0,102.0,13.3,1505.3,326.1,-0.7,1.8,2470.446,13.32,0.034,115.8
2020-08-21T06:46:03,42.805,6.029,0.042,-0.01,0.026,104.0,106.0,102.0,13.3,1505.3,327.0,-0.7,1.9,2470.465,13.32,0.043,103.4
2020-08-21T06:49:03,42.805,6.029,0.065,-0.038,-0.022,104.0,105.0,101.0,13.3,1505.3,325.7,-0.7,1.9,2470.38,13.32,0.075,120.3
2020-08-21T06:52:03,42.805,6.029,0.045,-0.042,-0.017,104.0,106.0,102.0,13.3,1505.3,325.5,-0.7,1.8,2470.446,13.32,0.061,133.0
2020-08-21T06:55:03,42.805,6.029,0.036,-0.022,0.01,104.0,105.0,101.0,13.4,1505.3,325.7,-0.7,1.9,2470.424,13.32,0.042,121.4
2020-08-21T06:58:03,42.805,6.029,0.037,-0.016,-0.015,105.0,105.0,100.0,13.3,1505.3,326.5,-0.7,1.8,2470.44,13.32,0.04,113.4
2020-08-21T07:04:03,42.805,6.029,0.043,-0.039,0.013,105.0,105.0,101.0,13.4,1505.2,325.6,-0.7,1.9,2470.509,13.3,0.058,132.2
2020-08-21T07:07:03,42.805,6.029,0.04,-0.021,0.0,103.0,106.0,103.0,13.4,1505.3,324.0,-0.7,1.8,2470.517,13.31,0.045,117.7
2020-08-21T07:10:03,42.805,6.029,0.056,-0.03,0.01,105.0,105.0,103.0,13.4,1505.3,325.8,-0.7,1.8,2470.468,13.31,0.063,118.2
2020-08-21T07:13:03,42.805,6.029,0.038,-0.028,0.003,104.0,106.0,102.0,13.3,1505.3,324.9,-0.7,1.8,2470.449,13.32,0.047,126.4
2020-08-21T07:16:03,42.805,6.029,0.057,-0.028,-0.008,105.0,106.0,101.0,13.3,1505.3,326.5,-0.7,1.8,2470.431,13.32,0.063,116.2
2020-08-21T07:19:03,42.805,6.029,0.035,-0.014,-0.009,104.0,105.0,101.0,13.4,1505.3,323.8,-0.7,1.8,2470.464,13.32,0.037,111.8
2020-08-21T07:22:03,42.805,6.029,0.041,-0.011,-0.024,104.0,106.0,102.0,13.4,1505.3,326.7,-0.7,1.8,2470.49,13.32,0.042,105.0
2020-08-21T07:25:03,42.805,6.029,0.051,-0.028,-0.014,105.0,106.0,102.0,13.4,1505.3,326.4,-0.7,1.8,2470.443,13.32,0.058,118.8
2020-08-21T07:28:03,42.805,6.029,0.008,-0.02,-0.017,105.0,105.0,102.0,13.4,1505.3,327.8,-0.7,1.8,2470.475,13.32,0.021,158.2
2020-08-21T07:31:03,42.805,6.029,0.066,-0.027,0.033,104.0,106.0,102.0,13.4,1505.3,325.5,-0.7,1.8,2470.473,13.32,0.071,112.2
2020-08-21T07:34:03,42.805,6.029,0.066,-0.023,0.011,106.0,107.0,102.0,13.3,1505.3,327.7,-0.7,1.8,2470.468,13.32,0.069,109.2
2020-08-21T07:37:03,42.805,6.029,0.025,-0.03,-0.008,105.0,107.0,102.0,13.4,1505.3,327.6,-0.7,1.8,2470.463,13.32,0.039,140.2
2020-08-21T07:40:03,42.805,6.029,0.047,-0.031,-0.009,105.0,106.0,102.0,13.3,1505.3,326.7,-0.7,1.8,2470.486,13.32,0.056,123.4
2020-08-21T07:43:03,42.805,6.029,0.056,-0.026,0.013,105.0,106.0,103.0,13.4,1505.3,323.9,-0.7,1.8,2470.474,13.32,0.061,114.9
2020-08-21T07:46:03,42.805,6.029,0.022,-0.013,-0.015,105.0,106.0,103.0,13.3,1505.3,325.3,-0.7,1.8,2470.477,13.32,0.025,120.6
2020-08-21T07:49:03,42.805,6.029,0.026,-0.019,-0.006,105.0,106.0,103.0,13.3,1505.3,327.3,-0.7,1.8,2470.481,13.32,0.032,126.2
2020-08-21T07:52:03,42.805,6.029,0.05,-0.008,0.012,105.0,107.0,103.0,13.3,1505.3,326.0,-0.7,1.8,2470.474,13.32,0.05,99.1
2020-08-21T07:55:03,42.805,6.029,0.029,-0.03,0.021,104.0,106.0,101.0,13.4,1505.3,326.5,-0.7,1.8,2470.48,13.32,0.041,136.0
2020-08-21T08:04:03,42.805,6.029,0.057,-0.019,0.001,105.0,106.0,101.0,13.4,1505.2,325.9,-0.8,1.9,2470.529,13.29,0.06,108.4
2020-08-21T08:07:03,42.805,6.029,0.036,-0.019,-0.001,105.0,106.0,102.0,13.3,1505.2,323.2,-0.7,1.8,2470.536,13.3,0.04,117.8
2020-08-21T08:10:03,42.805,6.029,0.039,-0.024,-0.009,106.0,105.0,101.0,13.4,1505.3,322.8,-0.7,1.8,2470.479,13.31,0.045,121.6
2020-08-21T08:13:03,42.805,6.029,0.066,-0.034,0.004,104.0,105.0,102.0,13.4,1505.3,328.0,-0.7,1.8,2470.539,13.32,0.074,117.3
2020-08-21T08:16:03,42.805,6.029,0.035,-0.033,-0.019,105.0,105.0,101.0,13.4,1505.3,328.2,-0.7,1.8,2470.487,13.32,0.048,133.3
2020-08-21T08:19:03,42.805,6.029,0.019,-0.03,0.004,104.0,105.0,101.0,13.3,1505.3,326.0,-0.7,1.9,2470.511,13.32,0.035,147.7
2020-08-21T08:22:03,42.805,6.029,0.049,-0.026,-0.005,105.0,105.0,101.0,13.4,1505.3,324.7,-0.7,1.8,2470.52,13.32,0.055,117.9
2020-08-21T08:25:03,42.805,6.029,0.038,-0.015,0.005,105.0,106.0,102.0,13.3,1505.3,324.3,-0.7,1.8,2470.503,13.32,0.04,111.5
2020-08-21T08:28:03,42.805,6.029,0.031,-0.026,0.013,105.0,105.0,102.0,13.4,1505.3,325.0,-0.7,1.8,2470.501,13.32,0.04,130.0
2020-08-21T08:31:03,42.805,6.029,0.035,-0.007,0.028,104.0,106.0,102.0,13.3,1505.3,323.2,-0.7,1.8,2470.534,13.32,0.035,101.3
2020-08-21T08:34:03,42.805,6.029,0.041,-0.016,-0.016,105.0,105.0,103.0,13.4,1505.3,324.3,-0.7,1.8,2470.499,13.32,0.044,111.3
2020-08-21T08:37:03,42.805,6.029,0.025,-0.02,0.005,104.0,106.0,101.0,13.4,1505.3,324.2,-0.7,1.9,2470.466,13.32,0.032,128.7
2020-08-21T08:40:03,42.805,6.029,0.024,-0.029,-0.024,105.0,105.0,102.0,13.4,1505.3,326.0,-0.7,1.8,2470.472,13.32,0.037,140.4
2020-08-21T08:43:03,42.805,6.029,0.03,-0.027,-0.02,105.0,107.0,101.0,13.4,1505.3,324.8,-0.7,1.8,2470.469,13.32,0.04,132.0
2020-08-21T08:46:03,42.805,6.029,0.043,-0.024,0.03,106.0,105.0,102.0,13.4,1505.3,328.0,-0.7,1.8,2470.432,13.32,0.049,119.2
2020-08-21T08:49:03,42.805,6.029,0.034,-0.013,0.0,106.0,105.0,102.0,13.4,1505.3,325.7,-0.7,1.8,2470.464,13.32,0.036,110.9
2020-08-21T08:52:03,42.805,6.029,0.051,-0.027,0.004,105.0,106.0,103.0,13.3,1505.3,325.2,-0.7,1.8,2470.474,13.32,0.057,117.9
2020-08-21T08:55:03,42.805,6.029,0.008,-0.027,-0.056,104.0,106.0,102.0,13.3,1505.3,324.4,-0.7,1.8,2470.498,13.32,0.028,163.5
2020-08-21T08:58:03,42.805,6.029,0.049,-0.015,0.022,105.0,106.0,102.0,13.4,1505.3,328.2,-0.7,1.8,2470.459,13.32,0.051,107.0
2020-08-21T09:04:03,42.805,6.029,0.028,-0.009,0.004,105.0,106.0,103.0,13.4,1505.2,326.7,-0.8,1.8,2470.553,13.3,0.029,107.8
2020-08-21T09:07:03,42.805,6.029,0.022,-0.022,-0.015,104.0,106.0,101.0,13.4,1505.3,327.9,-0.7,1.8,2470.504,13.31,0.031,135.0
2020-08-21T09:10:03,42.805,6.029,0.019,-0.019,-0.002,105.0,106.0,102.0,13.4,1505.3,326.2,-0.7,1.8,2470.504,13.32,0.026,135.0
2020-08-21T09:13:03,42.805,6.029,0.041,-0.01,0.013,106.0,105.0,101.0,13.3,1505.3,322.7,-0.7,1.8,2470.482,13.32,0.042,103.7
2020-08-21T09:16:03,42.805,6.029,0.053,-0.017,0.015,106.0,107.0,101.0,13.4,1505.3,327.4,-0.7,1.8,2470.489,13.32,0.055,107.8
2020-08-21T09:19:03,42.805,6.029,0.032,-0.033,-0.025,105.0,105.0,102.0,13.4,1505.3,326.6,-0.7,1.9,2470.479,13.32,0.045,135.9
2020-08-21T09:22:03,42.805,6.029,0.035,-0.026,-0.004,105.0,104.0,103.0,13.3,1505.3,327.2,-0.7,1.8,2470.476,13.32,0.043,126.6
2020-08-21T09:25:03,42.805,6.029,0.017,-0.001,-0.009,107.0,105.0,103.0,13.3,1505.3,324.9,-0.8,1.8,2470.457,13.32,0.017,93.4
2020-08-21T09:28:03,42.805,6.029,0.032,-0.019,0.009,105.0,106.0,101.0,13.4,1505.3,328.1,-0.7,1.8,2470.453,13.32,0.037,120.7
2020-08-21T09:31:03,42.805,6.029,0.031,-0.015,0.007,106.0,106.0,102.0,13.4,1505.3,327.1,-0.7,1.8,2470.431,13.32,0.034,115.8
2020-08-21T09:34:03,42.805,6.029,0.024,-0.03,0.013,106.0,108.0,101.0,13.4,1505.3,327.0,-0.7,1.8,2470.46,13.32,0.038,141.3
2020-08-21T09:37:03,42.805,6.029,0.047,0.0,0.012,107.0,108.0,102.0,13.3,1505.3,324.7,-0.7,1.8,2470.515,13.32,0.047,90.0
2020-08-21T09:40:03,42.805,6.029,0.023,-0.027,-0.032,105.0,105.0,102.0,13.4,1505.3,323.1,-0.7,1.8,2470.45,13.32,0.035,139.6
2020-08-21T09:43:03,42.805,6.029,0.022,-0.03,-0.008,104.0,107.0,103.0,13.4,1505.3,323.4,-0.7,1.8,2470.447,13.32,0.037,143.7
2020-08-21T09:46:03,42.805,6.029,0.043,-0.038,-0.02,104.0,106.0,101.0,13.3,1505.3,323.8,-0.7,1.9,2470.486,13.32,0.057,131.5
2020-08-21T09:49:03,42.805,6.029,0.032,-0.021,0.015,106.0,105.0,102.0,13.4,1505.3,328.5,-0.7,1.8,2470.482,13.32,0.038,123.3
2020-08-21T09:52:03,42.805,6.029,0.036,-0.051,-0.02,103.0,107.0,102.0,13.4,1505.3,326.0,-0.7,1.8,2470.442,13.32,0.062,144.8
2020-08-21T09:55:03,42.805,6.029,0.035,-0.033,-0.007,105.0,106.0,103.0,13.4,1505.3,325.6,-0.7,1.8,2470.445,13.32,0.048,133.3
2020-08-21T09:58:03,42.805,6.029,0.036,-0.02,-0.024,105.0,107.0,101.0,13.4,1505.3,326.4,-0.7,1.8,2470.453,13.32,0.041,119.1